Year,Month,Day,Hour,Minute,Value (Times are PST for temperature in C)
2010,08,21,00,00,11.70
2010,08,21,00,01,11.60
2010,08,21,00,02,11.60
2010,08,21,00,03,11.60
2010,08,21,00,04,11.60
2010,08,21,00,05,11.50
2010,08,21,00,06,11.40
2010,08,21,00,07,11.40
2010,08,21,00,08,11.30
2010,08,21,00,09,11.20
2010,08,21,00,10,11.20
2010,08,21,00,11,11.10
2010,08,21,00,12,11.10
2010,08,21,00,13,10.90
2010,08,21,00,14,10.90
2010,08,21,00,15,10.90
2010,08,21,00,16,10.80
2010,08,21,00,17,10.80
2010,08,21,00,18,10.70
2010,08,21,00,19,10.70
2010,08,21,00,20,10.70
2010,08,21,00,21,10.70
2010,08,21,00,22,10.60
2010,08,21,00,23,10.60
2010,08,21,00,24,10.70
2010,08,21,00,25,10.70
2010,08,21,00,26,10.70
2010,08,21,00,27,10.70
2010,08,21,00,28,10.70
2010,08,21,00,29,10.70
2010,08,21,00,30,10.70
2010,08,21,00,31,10.70
2010,08,21,00,32,10.70
2010,08,21,00,33,10.70
2010,08,21,00,34,10.70
2010,08,21,00,35,10.70
2010,08,21,00,36,10.70
2010,08,21,00,37,10.70
2010,08,21,00,38,10.70
2010,08,21,00,39,10.70
2010,08,21,00,40,10.70
2010,08,21,00,41,10.70
2010,08,21,00,42,10.80
2010,08,21,00,43,10.80
2010,08,21,00,44,10.80
2010,08,21,00,45,10.80
2010,08,21,00,46,10.80
2010,08,21,00,47,10.80
2010,08,21,00,48,10.80
2010,08,21,00,49,10.80
2010,08,21,00,50,10.80
2010,08,21,00,51,10.80
2010,08,21,00,52,10.80
2010,08,21,00,53,10.80
2010,08,21,00,54,10.80
2010,08,21,00,55,10.80
2010,08,21,00,56,10.80
2010,08,21,00,57,10.80
2010,08,21,00,58,10.80
2010,08,21,00,59,10.80
2010,08,21,01,00,10.80
2010,08,21,01,01,10.80
2010,08,21,01,02,10.80
2010,08,21,01,03,10.80
2010,08,21,01,04,10.80
2010,08,21,01,05,10.80
2010,08,21,01,06,10.80
2010,08,21,01,07,10.80
2010,08,21,01,08,10.80
2010,08,21,01,09,10.80
2010,08,21,01,10,10.70
2010,08,21,01,11,10.70
2010,08,21,01,12,10.70
2010,08,21,01,13,10.70
2010,08,21,01,14,10.60
2010,08,21,01,15,10.60
2010,08,21,01,16,10.60
2010,08,21,01,17,10.60
2010,08,21,01,18,10.60
2010,08,21,01,19,10.60
2010,08,21,01,20,10.60
2010,08,21,01,21,10.60
2010,08,21,01,22,10.60
2010,08,21,01,23,10.60
2010,08,21,01,24,10.60
2010,08,21,01,25,10.60
2010,08,21,01,26,10.60
2010,08,21,01,27,10.60
2010,08,21,01,28,10.60
2010,08,21,01,29,10.60
2010,08,21,01,30,10.60
2010,08,21,01,31,10.60
2010,08,21,01,32,10.60
2010,08,21,01,33,10.60
2010,08,21,01,34,10.60
2010,08,21,01,35,10.60
2010,08,21,01,36,10.60
2010,08,21,01,37,10.60
2010,08,21,01,38,10.60
2010,08,21,01,39,10.60
2010,08,21,01,40,10.60
2010,08,21,01,41,10.60
2010,08,21,01,42,10.60
2010,08,21,01,43,10.60
2010,08,21,01,44,10.60
2010,08,21,01,45,10.60
2010,08,21,01,46,10.50
2010,08,21,01,47,10.40
2010,08,21,01,48,10.40
2010,08,21,01,49,10.40
2010,08,21,01,50,10.40
2010,08,21,01,51,10.40
2010,08,21,01,52,10.30
2010,08,21,01,53,10.30
2010,08,21,01,54,10.30
2010,08,21,01,55,10.30
2010,08,21,01,56,10.20
2010,08,21,01,57,10.20
2010,08,21,01,58,10.20
2010,08,21,01,59,10.20
2010,08,21,02,00,10.20
2010,08,21,02,01,10.20
2010,08,21,02,02,10.20
2010,08,21,02,03,10.20
2010,08,21,02,04,10.20
2010,08,21,02,05,10.20
2010,08,21,02,06,10.10
2010,08,21,02,07,10.10
2010,08,21,02,08,10.10
2010,08,21,02,09,10.10
2010,08,21,02,10,10.10
2010,08,21,02,11,10.10
2010,08,21,02,12,10.10
2010,08,21,02,13,10.10
2010,08,21,02,14,10.10
2010,08,21,02,15,10.10
2010,08,21,02,16,10.10
2010,08,21,02,17,10.10
2010,08,21,02,18,10.10
2010,08,21,02,19,10.10
2010,08,21,02,20,10.10
2010,08,21,02,21,10.10
2010,08,21,02,22,10.10
2010,08,21,02,23,10.10
2010,08,21,02,24,10.10
2010,08,21,02,25,10.10
2010,08,21,02,26,10.10
2010,08,21,02,27,10.10
2010,08,21,02,28,10.10
2010,08,21,02,29,10.10
2010,08,21,02,30,10.10
2010,08,21,02,31,10.10
2010,08,21,02,32,10.10
2010,08,21,02,33,10.10
2010,08,21,02,34,10.10
2010,08,21,02,35,10.10
2010,08,21,02,36,10.10
2010,08,21,02,37,10.00
2010,08,21,02,38,9.90
2010,08,21,02,39,9.90
2010,08,21,02,40,9.90
2010,08,21,02,41,9.90
2010,08,21,02,42,9.90
2010,08,21,02,43,9.90
2010,08,21,02,44,9.90
2010,08,21,02,45,9.90
2010,08,21,02,46,9.90
2010,08,21,02,47,9.90
2010,08,21,02,48,9.90
2010,08,21,02,49,9.80
2010,08,21,02,50,9.80
2010,08,21,02,51,9.80
2010,08,21,02,52,9.80
2010,08,21,02,53,9.70
2010,08,21,02,54,9.70
2010,08,21,02,55,9.70
2010,08,21,02,56,9.70
2010,08,21,02,57,9.70
2010,08,21,02,58,9.70
2010,08,21,02,59,9.70
2010,08,21,03,00,9.70
2010,08,21,03,01,9.60
2010,08,21,03,02,9.60
2010,08,21,03,03,9.60
2010,08,21,03,04,9.60
2010,08,21,03,05,9.60
2010,08,21,03,06,9.60
2010,08,21,03,07,9.50
2010,08,21,03,08,9.50
2010,08,21,03,09,9.50
2010,08,21,03,10,9.50
2010,08,21,03,11,9.50
2010,08,21,03,12,9.50
2010,08,21,03,13,9.40
2010,08,21,03,14,9.40
2010,08,21,03,15,9.40
2010,08,21,03,16,9.40
2010,08,21,03,17,9.30
2010,08,21,03,18,9.30
2010,08,21,03,19,9.30
2010,08,21,03,20,9.30
2010,08,21,03,21,9.30
2010,08,21,03,22,9.30
2010,08,21,03,23,9.20
2010,08,21,03,24,9.20
2010,08,21,03,25,9.20
2010,08,21,03,26,9.20
2010,08,21,03,27,9.20
2010,08,21,03,28,9.20
2010,08,21,03,29,9.20
2010,08,21,03,30,9.20
2010,08,21,03,31,9.20
2010,08,21,03,32,9.20
2010,08,21,03,33,9.20
2010,08,21,03,34,9.20
2010,08,21,03,35,9.20
2010,08,21,03,36,9.20
2010,08,21,03,37,9.20
2010,08,21,03,38,9.10
2010,08,21,03,39,9.10
2010,08,21,03,40,9.10
2010,08,21,03,41,9.10
2010,08,21,03,42,9.10
2010,08,21,03,43,9.10
2010,08,21,03,44,9.10
2010,08,21,03,45,9.10
2010,08,21,03,46,9.10
2010,08,21,03,47,9.10
2010,08,21,03,48,9.10
2010,08,21,03,49,9.10
2010,08,21,03,50,9.10
2010,08,21,03,51,9.00
2010,08,21,03,52,9.00
2010,08,21,03,53,9.00
2010,08,21,03,54,9.00
2010,08,21,03,55,9.00
2010,08,21,03,56,9.00
2010,08,21,03,57,9.00
2010,08,21,03,58,9.00
2010,08,21,03,59,9.00
2010,08,21,04,00,8.90
2010,08,21,04,01,8.90
2010,08,21,04,02,8.90
2010,08,21,04,03,8.90
2010,08,21,04,04,8.90
2010,08,21,04,05,8.80
2010,08,21,04,06,8.80
2010,08,21,04,07,8.80
2010,08,21,04,08,8.80
2010,08,21,04,09,8.70
2010,08,21,04,10,8.70
2010,08,21,04,11,8.70
2010,08,21,04,12,8.70
2010,08,21,04,13,8.70
2010,08,21,04,14,8.70
2010,08,21,04,15,8.70
2010,08,21,04,16,8.70
2010,08,21,04,17,8.70
2010,08,21,04,18,8.70
2010,08,21,04,19,8.70
2010,08,21,04,20,8.70
2010,08,21,04,21,8.70
2010,08,21,04,22,8.70
2010,08,21,04,23,8.70
2010,08,21,04,24,8.70
2010,08,21,04,25,8.70
2010,08,21,04,26,8.70
2010,08,21,04,27,8.60
2010,08,21,04,28,8.60
2010,08,21,04,29,8.60
2010,08,21,04,30,8.60
2010,08,21,04,31,8.60
2010,08,21,04,32,8.60
2010,08,21,04,33,8.60
2010,08,21,04,34,8.60
2010,08,21,04,35,8.60
2010,08,21,04,36,8.60
2010,08,21,04,37,8.60
2010,08,21,04,38,8.60
2010,08,21,04,39,8.60
2010,08,21,04,40,8.60
2010,08,21,04,41,8.60
2010,08,21,04,42,8.60
2010,08,21,04,43,8.60
2010,08,21,04,44,8.70
2010,08,21,04,45,8.70
2010,08,21,04,46,8.70
2010,08,21,04,47,8.70
2010,08,21,04,48,8.70
2010,08,21,04,49,8.70
2010,08,21,04,50,8.70
2010,08,21,04,51,8.70
2010,08,21,04,52,8.70
2010,08,21,04,53,8.70
2010,08,21,04,54,8.70
2010,08,21,04,55,8.70
2010,08,21,04,56,8.70
2010,08,21,04,57,8.70
2010,08,21,04,58,8.70
2010,08,21,04,59,8.70
2010,08,21,05,00,8.70
2010,08,21,05,01,8.70
2010,08,21,05,02,8.60
2010,08,21,05,03,8.60
2010,08,21,05,04,8.60
2010,08,21,05,05,8.60
2010,08,21,05,06,8.60
2010,08,21,05,07,8.60
2010,08,21,05,08,8.60
2010,08,21,05,09,8.50
2010,08,21,05,10,8.50
2010,08,21,05,11,8.50
2010,08,21,05,12,8.50
2010,08,21,05,13,8.50
2010,08,21,05,14,8.40
2010,08,21,05,15,8.40
2010,08,21,05,16,8.40
2010,08,21,05,17,8.40
2010,08,21,05,18,8.40
2010,08,21,05,19,8.30
2010,08,21,05,20,8.30
2010,08,21,05,21,8.30
2010,08,21,05,22,8.30
2010,08,21,05,23,8.30
2010,08,21,05,24,8.30
2010,08,21,05,25,8.30
2010,08,21,05,26,8.30
2010,08,21,05,27,8.30
2010,08,21,05,28,8.30
2010,08,21,05,29,8.30
2010,08,21,05,30,8.30
2010,08,21,05,31,8.30
2010,08,21,05,32,8.30
2010,08,21,05,33,8.20
2010,08,21,05,34,8.20
2010,08,21,05,35,8.20
2010,08,21,05,36,8.20
2010,08,21,05,37,8.20
2010,08,21,05,38,8.20
2010,08,21,05,39,8.20
2010,08,21,05,40,8.20
2010,08,21,05,41,8.20
2010,08,21,05,42,8.20
2010,08,21,05,43,8.20
2010,08,21,05,44,8.20
2010,08,21,05,45,8.20
2010,08,21,05,46,8.20
2010,08,21,05,47,8.20
2010,08,21,05,48,8.20
2010,08,21,05,49,8.20
2010,08,21,05,50,8.10
2010,08,21,05,51,8.10
2010,08,21,05,52,8.10
2010,08,21,05,53,8.10
2010,08,21,05,54,8.10
2010,08,21,05,55,8.10
2010,08,21,05,56,8.10
2010,08,21,05,57,8.10
2010,08,21,05,58,8.10
2010,08,21,05,59,8.10
2010,08,21,06,00,8.00
2010,08,21,06,01,8.00
2010,08,21,06,02,8.00
2010,08,21,06,03,8.00
2010,08,21,06,04,8.00
2010,08,21,06,05,8.00
2010,08,21,06,06,8.00
2010,08,21,06,07,8.10
2010,08,21,06,08,8.10
2010,08,21,06,09,8.10
2010,08,21,06,10,8.10
2010,08,21,06,11,8.10
2010,08,21,06,12,8.10
2010,08,21,06,13,8.10
2010,08,21,06,14,8.10
2010,08,21,06,15,8.10
2010,08,21,06,16,8.10
2010,08,21,06,17,8.10
2010,08,21,06,18,8.10
2010,08,21,06,19,8.10
2010,08,21,06,20,8.10
2010,08,21,06,21,8.00
2010,08,21,06,22,8.00
2010,08,21,06,23,8.00
2010,08,21,06,24,8.00
2010,08,21,06,25,8.00
2010,08,21,06,26,8.00
2010,08,21,06,27,8.00
2010,08,21,06,28,8.00
2010,08,21,06,29,8.10
2010,08,21,06,30,8.10
2010,08,21,06,31,8.10
2010,08,21,06,32,8.10
2010,08,21,06,33,8.10
2010,08,21,06,34,8.10
2010,08,21,06,35,8.10
2010,08,21,06,36,8.10
2010,08,21,06,37,8.10
2010,08,21,06,38,8.10
2010,08,21,06,39,8.10
2010,08,21,06,40,8.10
2010,08,21,06,41,8.10
2010,08,21,06,42,8.10
2010,08,21,06,43,8.10
2010,08,21,06,44,8.10
2010,08,21,06,45,8.10
2010,08,21,06,46,8.10
2010,08,21,06,47,8.10
2010,08,21,06,48,8.10
2010,08,21,06,49,8.10
2010,08,21,06,50,8.10
2010,08,21,06,51,8.10
2010,08,21,06,52,8.10
2010,08,21,06,53,8.10
2010,08,21,06,54,8.10
2010,08,21,06,55,8.10
2010,08,21,06,56,8.10
2010,08,21,06,57,8.10
2010,08,21,06,58,8.10
2010,08,21,06,59,8.20
2010,08,21,07,00,8.20
2010,08,21,07,01,8.20
2010,08,21,07,02,8.20
2010,08,21,07,03,8.20
2010,08,21,07,04,8.20
2010,08,21,07,05,8.20
2010,08,21,07,06,8.20
2010,08,21,07,07,8.20
2010,08,21,07,08,8.20
2010,08,21,07,09,8.20
2010,08,21,07,10,8.20
2010,08,21,07,11,8.20
2010,08,21,07,12,8.30
2010,08,21,07,13,8.30
2010,08,21,07,14,8.30
2010,08,21,07,15,8.30
2010,08,21,07,16,8.40
2010,08,21,07,17,8.40
2010,08,21,07,18,8.40
2010,08,21,07,19,8.50
2010,08,21,07,20,8.50
2010,08,21,07,21,8.50
2010,08,21,07,22,8.50
2010,08,21,07,23,8.60
2010,08,21,07,24,8.60
2010,08,21,07,25,8.60
2010,08,21,07,26,8.70
2010,08,21,07,27,8.70
2010,08,21,07,28,8.70
2010,08,21,07,29,8.80
2010,08,21,07,30,8.90
2010,08,21,07,31,8.90
2010,08,21,07,32,9.00
2010,08,21,07,33,9.10
2010,08,21,07,34,9.20
2010,08,21,07,35,9.20
2010,08,21,07,36,9.20
2010,08,21,07,37,9.20
2010,08,21,07,38,9.20
2010,08,21,07,39,9.30
2010,08,21,07,40,9.30
2010,08,21,07,41,9.40
2010,08,21,07,42,9.40
2010,08,21,07,43,9.50
2010,08,21,07,44,9.50
2010,08,21,07,45,9.60
2010,08,21,07,46,9.60
2010,08,21,07,47,9.70
2010,08,21,07,48,9.70
2010,08,21,07,49,9.70
2010,08,21,07,50,9.80
2010,08,21,07,51,9.90
2010,08,21,07,52,9.90
2010,08,21,07,53,10.00
2010,08,21,07,54,10.10
2010,08,21,07,55,10.20
2010,08,21,07,56,10.30
2010,08,21,07,57,10.30
2010,08,21,07,58,10.40
2010,08,21,07,59,10.50
2010,08,21,08,00,10.60
2010,08,21,08,01,10.60
2010,08,21,08,02,10.70
2010,08,21,08,03,10.70
2010,08,21,08,04,10.80
2010,08,21,08,05,10.80
2010,08,21,08,06,10.90
2010,08,21,08,07,10.90
2010,08,21,08,08,11.00
2010,08,21,08,09,11.10
2010,08,21,08,10,11.10
2010,08,21,08,11,11.20
2010,08,21,08,12,11.20
2010,08,21,08,13,11.30
2010,08,21,08,14,11.40
2010,08,21,08,15,11.40
2010,08,21,08,16,11.50
2010,08,21,08,17,11.60
2010,08,21,08,18,11.60
2010,08,21,08,19,11.70
2010,08,21,08,20,11.80
2010,08,21,08,21,11.80
2010,08,21,08,22,11.90
2010,08,21,08,23,12.00
2010,08,21,08,24,12.00
2010,08,21,08,25,12.10
2010,08,21,08,26,12.20
2010,08,21,08,27,12.30
2010,08,21,08,28,12.30
2010,08,21,08,29,12.30
2010,08,21,08,30,12.40
2010,08,21,08,31,12.50
2010,08,21,08,32,12.60
2010,08,21,08,33,12.60
2010,08,21,08,34,12.70
2010,08,21,08,35,12.80
2010,08,21,08,36,12.90
2010,08,21,08,37,13.00
2010,08,21,08,38,13.10
2010,08,21,08,39,13.10
2010,08,21,08,40,13.20
2010,08,21,08,41,13.30
2010,08,21,08,42,13.40
2010,08,21,08,43,13.50
2010,08,21,08,44,13.60
2010,08,21,08,45,13.60
2010,08,21,08,46,13.70
2010,08,21,08,47,13.80
2010,08,21,08,48,13.90
2010,08,21,08,49,14.00
2010,08,21,08,50,14.00
2010,08,21,08,51,14.10
2010,08,21,08,52,14.20
2010,08,21,08,53,14.20
2010,08,21,08,54,14.30
2010,08,21,08,55,14.40
2010,08,21,08,56,14.40
2010,08,21,08,57,14.50
2010,08,21,08,58,14.60
2010,08,21,08,59,14.70
2010,08,21,09,00,14.70
2010,08,21,09,01,14.80
2010,08,21,09,02,14.90
2010,08,21,09,03,15.00
2010,08,21,09,04,15.00
2010,08,21,09,05,15.10
2010,08,21,09,06,15.10
2010,08,21,09,07,15.20
2010,08,21,09,08,15.20
2010,08,21,09,09,15.30
2010,08,21,09,10,15.30
2010,08,21,09,11,15.40
2010,08,21,09,12,15.40
2010,08,21,09,13,15.50
2010,08,21,09,14,15.60
2010,08,21,09,15,15.60
2010,08,21,09,16,15.70
2010,08,21,09,17,15.80
2010,08,21,09,18,15.80
2010,08,21,09,19,15.90
2010,08,21,09,20,16.00
2010,08,21,09,21,16.10
2010,08,21,09,22,16.10
2010,08,21,09,23,16.10
2010,08,21,09,24,16.10
2010,08,21,09,25,16.10
2010,08,21,09,26,16.10
2010,08,21,09,27,16.20
2010,08,21,09,28,16.20
2010,08,21,09,29,16.30
2010,08,21,09,30,16.40
2010,08,21,09,31,16.40
2010,08,21,09,32,16.50
2010,08,21,09,33,16.60
2010,08,21,09,34,16.60
2010,08,21,09,35,16.60
2010,08,21,09,36,16.60
2010,08,21,09,37,16.70
2010,08,21,09,38,16.70
2010,08,21,09,39,16.70
2010,08,21,09,40,16.70
2010,08,21,09,41,16.70
2010,08,21,09,42,16.80
2010,08,21,09,43,16.80
2010,08,21,09,44,16.80
2010,08,21,09,45,16.80
2010,08,21,09,46,16.80
2010,08,21,09,47,16.70
2010,08,21,09,48,16.70
2010,08,21,09,49,16.70
2010,08,21,09,50,16.70
2010,08,21,09,51,16.70
2010,08,21,09,52,16.70
2010,08,21,09,53,16.70
2010,08,21,09,54,16.80
2010,08,21,09,55,16.80
2010,08,21,09,56,16.70
2010,08,21,09,57,16.70
2010,08,21,09,58,16.60
2010,08,21,09,59,16.50
2010,08,21,10,00,16.40
2010,08,21,10,01,16.30
2010,08,21,10,02,16.30
2010,08,21,10,03,16.20
2010,08,21,10,04,16.20
2010,08,21,10,05,16.20
2010,08,21,10,06,16.20
2010,08,21,10,07,16.30
2010,08,21,10,08,16.40
2010,08,21,10,09,16.40
2010,08,21,10,10,16.40
2010,08,21,10,11,16.60
2010,08,21,10,12,16.60
2010,08,21,10,13,16.70
2010,08,21,10,14,16.80
2010,08,21,10,15,16.90
2010,08,21,10,16,17.00
2010,08,21,10,17,17.00
2010,08,21,10,18,17.10
2010,08,21,10,19,17.10
2010,08,21,10,20,17.10
2010,08,21,10,21,17.10
2010,08,21,10,22,17.10
2010,08,21,10,23,17.10
2010,08,21,10,24,17.10
2010,08,21,10,25,17.00
2010,08,21,10,26,17.00
2010,08,21,10,27,17.00
2010,08,21,10,28,16.90
2010,08,21,10,29,16.90
2010,08,21,10,30,16.90
2010,08,21,10,31,16.90
2010,08,21,10,32,16.90
2010,08,21,10,33,17.00
2010,08,21,10,34,17.00
2010,08,21,10,35,17.10
2010,08,21,10,36,17.20
2010,08,21,10,37,17.20
2010,08,21,10,38,17.20
2010,08,21,10,39,17.30
2010,08,21,10,40,17.30
2010,08,21,10,41,17.30
2010,08,21,10,42,17.40
2010,08,21,10,43,17.50
2010,08,21,10,44,17.50
2010,08,21,10,45,17.50
2010,08,21,10,46,17.50
2010,08,21,10,47,17.40
2010,08,21,10,48,17.30
2010,08,21,10,49,17.30
2010,08,21,10,50,17.30
2010,08,21,10,51,17.30
2010,08,21,10,52,17.30
2010,08,21,10,53,17.30
2010,08,21,10,54,17.40
2010,08,21,10,55,17.40
2010,08,21,10,56,17.40
2010,08,21,10,57,17.50
2010,08,21,10,58,17.60
2010,08,21,10,59,17.70
2010,08,21,11,00,17.90
2010,08,21,11,01,18.00
2010,08,21,11,02,17.90
2010,08,21,11,03,17.90
2010,08,21,11,04,17.90
2010,08,21,11,05,17.90
2010,08,21,11,06,18.00
2010,08,21,11,07,18.20
2010,08,21,11,08,18.40
2010,08,21,11,09,18.50
2010,08,21,11,10,18.50
2010,08,21,11,11,18.30
2010,08,21,11,12,18.10
2010,08,21,11,13,18.00
2010,08,21,11,14,18.00
2010,08,21,11,15,18.10
2010,08,21,11,16,18.00
2010,08,21,11,17,17.90
2010,08,21,11,18,18.00
2010,08,21,11,19,18.10
2010,08,21,11,20,18.10
2010,08,21,11,21,18.10
2010,08,21,11,22,18.10
2010,08,21,11,23,18.10
2010,08,21,11,24,18.10
2010,08,21,11,25,17.90
2010,08,21,11,26,18.00
2010,08,21,11,27,18.10
2010,08,21,11,28,18.20
2010,08,21,11,29,18.20
2010,08,21,11,30,18.30
2010,08,21,11,31,18.40
2010,08,21,11,32,18.40
2010,08,21,11,33,18.40
2010,08,21,11,34,18.40
2010,08,21,11,35,18.40
2010,08,21,11,36,18.40
2010,08,21,11,37,18.30
2010,08,21,11,38,18.40
2010,08,21,11,39,18.40
2010,08,21,11,40,18.50
2010,08,21,11,41,18.40
2010,08,21,11,42,18.40
2010,08,21,11,43,18.40
2010,08,21,11,44,18.30
2010,08,21,11,45,18.30
2010,08,21,11,46,18.30
2010,08,21,11,47,18.30
2010,08,21,11,48,18.40
2010,08,21,11,49,18.40
2010,08,21,11,50,18.40
2010,08,21,11,51,18.40
2010,08,21,11,52,18.40
2010,08,21,11,53,18.30
2010,08,21,11,54,18.30
2010,08,21,11,55,18.30
2010,08,21,11,56,18.30
2010,08,21,11,57,18.30
2010,08,21,11,58,18.40
2010,08,21,11,59,18.40
2010,08,21,12,00,18.30
2010,08,21,12,01,18.20
2010,08,21,12,02,18.10
2010,08,21,12,03,18.10
2010,08,21,12,04,18.20
2010,08,21,12,05,18.20
2010,08,21,12,06,18.20
2010,08,21,12,07,18.30
2010,08,21,12,08,18.30
2010,08,21,12,09,18.20
2010,08,21,12,10,18.30
2010,08,21,12,11,18.30
2010,08,21,12,12,18.30
2010,08,21,12,13,18.50
2010,08,21,12,14,18.60
2010,08,21,12,15,18.60
2010,08,21,12,16,18.70
2010,08,21,12,17,18.80
2010,08,21,12,18,18.90
2010,08,21,12,19,18.90
2010,08,21,12,20,18.80
2010,08,21,12,21,18.70
2010,08,21,12,22,18.60
2010,08,21,12,23,18.60
2010,08,21,12,24,18.50
2010,08,21,12,25,18.60
2010,08,21,12,26,18.70
2010,08,21,12,27,18.80
2010,08,21,12,28,18.70
2010,08,21,12,29,18.70
2010,08,21,12,30,18.60
2010,08,21,12,31,18.60
2010,08,21,12,32,18.70
2010,08,21,12,33,18.80
2010,08,21,12,34,18.90
2010,08,21,12,35,19.00
2010,08,21,12,36,19.00
2010,08,21,12,37,18.90
2010,08,21,12,38,18.90
2010,08,21,12,39,19.00
2010,08,21,12,40,19.00
2010,08,21,12,41,18.80
2010,08,21,12,42,18.70
2010,08,21,12,43,18.80
2010,08,21,12,44,18.80
2010,08,21,12,45,18.90
2010,08,21,12,46,18.90
2010,08,21,12,47,19.10
2010,08,21,12,48,19.10
2010,08,21,12,49,19.10
2010,08,21,12,50,19.10
2010,08,21,12,51,19.00
2010,08,21,12,52,18.90
2010,08,21,12,53,19.00
2010,08,21,12,54,19.10
2010,08,21,12,55,19.20
2010,08,21,12,56,19.20
2010,08,21,12,57,19.40
2010,08,21,12,58,19.40
2010,08,21,12,59,19.50
2010,08,21,13,00,19.40
2010,08,21,13,01,19.50
2010,08,21,13,02,19.50
2010,08,21,13,03,19.40
2010,08,21,13,04,19.20
2010,08,21,13,05,19.10
2010,08,21,13,06,19.10
2010,08,21,13,07,19.20
2010,08,21,13,08,19.40
2010,08,21,13,09,19.50
2010,08,21,13,10,19.60
2010,08,21,13,11,19.70
2010,08,21,13,12,19.60
2010,08,21,13,13,19.50
2010,08,21,13,14,19.40
2010,08,21,13,15,19.30
2010,08,21,13,16,19.10
2010,08,21,13,17,19.10
2010,08,21,13,18,18.90
2010,08,21,13,19,18.80
2010,08,21,13,20,18.60
2010,08,21,13,21,18.50
2010,08,21,13,22,18.60
2010,08,21,13,23,18.70
2010,08,21,13,24,18.60
2010,08,21,13,25,18.70
2010,08,21,13,26,18.70
2010,08,21,13,27,18.80
2010,08,21,13,28,18.90
2010,08,21,13,29,19.10
2010,08,21,13,30,19.20
2010,08,21,13,31,19.30
2010,08,21,13,32,19.40
2010,08,21,13,33,19.40
2010,08,21,13,34,19.40
2010,08,21,13,35,19.40
2010,08,21,13,36,19.30
2010,08,21,13,37,19.30
2010,08,21,13,38,19.40
2010,08,21,13,39,19.50
2010,08,21,13,40,19.60
2010,08,21,13,41,19.70
2010,08,21,13,42,19.70
2010,08,21,13,43,19.80
2010,08,21,13,44,19.70
2010,08,21,13,45,19.70
2010,08,21,13,46,19.80
2010,08,21,13,47,19.90
2010,08,21,13,48,19.90
2010,08,21,13,49,19.90
2010,08,21,13,50,19.90
2010,08,21,13,51,20.10
2010,08,21,13,52,20.00
2010,08,21,13,53,19.90
2010,08,21,13,54,19.90
2010,08,21,13,55,19.90
2010,08,21,13,56,19.90
2010,08,21,13,57,19.90
2010,08,21,13,58,19.90
2010,08,21,13,59,19.90
2010,08,21,14,00,19.80
2010,08,21,14,01,19.70
2010,08,21,14,02,19.80
2010,08,21,14,03,19.90
2010,08,21,14,04,19.90
2010,08,21,14,05,19.90
2010,08,21,14,06,19.90
2010,08,21,14,07,19.80
2010,08,21,14,08,19.70
2010,08,21,14,09,19.70
2010,08,21,14,10,19.80
2010,08,21,14,11,19.80
2010,08,21,14,12,19.80
2010,08,21,14,13,19.80
2010,08,21,14,14,19.70
2010,08,21,14,15,19.70
2010,08,21,14,16,19.90
2010,08,21,14,17,20.10
2010,08,21,14,18,20.20
2010,08,21,14,19,20.30
2010,08,21,14,20,20.50
2010,08,21,14,21,20.70
2010,08,21,14,22,20.80
2010,08,21,14,23,20.70
2010,08,21,14,24,20.80
2010,08,21,14,25,21.00
2010,08,21,14,26,21.20
2010,08,21,14,27,21.30
2010,08,21,14,28,21.40
2010,08,21,14,29,21.40
2010,08,21,14,30,21.40
2010,08,21,14,31,21.50
2010,08,21,14,32,21.60
2010,08,21,14,33,21.70
2010,08,21,14,34,21.80
2010,08,21,14,35,21.90
2010,08,21,14,36,22.00
2010,08,21,14,37,22.10
2010,08,21,14,38,22.10
2010,08,21,14,39,22.20
2010,08,21,14,40,22.30
2010,08,21,14,41,22.50
2010,08,21,14,42,22.60
2010,08,21,14,43,22.80
2010,08,21,14,44,22.80
2010,08,21,14,45,22.80
2010,08,21,14,46,23.00
2010,08,21,14,47,23.20
2010,08,21,14,48,23.30
2010,08,21,14,49,23.30
2010,08,21,14,50,23.30
2010,08,21,14,51,23.40
2010,08,21,14,52,23.60
2010,08,21,14,53,23.60
2010,08,21,14,54,23.40
2010,08,21,14,55,23.30
2010,08,21,14,56,23.30
2010,08,21,14,57,23.30
2010,08,21,14,58,23.20
2010,08,21,14,59,23.20
2010,08,21,15,00,23.20
2010,08,21,15,01,23.20
2010,08,21,15,02,23.20
2010,08,21,15,03,23.20
2010,08,21,15,04,23.20
2010,08,21,15,05,23.30
2010,08,21,15,06,23.30
2010,08,21,15,07,23.30
2010,08,21,15,08,23.30
2010,08,21,15,09,23.30
2010,08,21,15,10,23.30
2010,08,21,15,11,23.30
2010,08,21,15,12,23.30
2010,08,21,15,13,23.10
2010,08,21,15,14,23.00
2010,08,21,15,15,23.00
2010,08,21,15,16,23.10
2010,08,21,15,17,23.20
2010,08,21,15,18,23.30
2010,08,21,15,19,23.40
2010,08,21,15,20,23.40
2010,08,21,15,21,23.50
2010,08,21,15,22,23.60
2010,08,21,15,23,23.70
2010,08,21,15,24,23.70
2010,08,21,15,25,23.70
2010,08,21,15,26,23.60
2010,08,21,15,27,23.50
2010,08,21,15,28,23.60
2010,08,21,15,29,23.60
2010,08,21,15,30,23.60
2010,08,21,15,31,23.60
2010,08,21,15,32,23.60
2010,08,21,15,33,23.60
2010,08,21,15,34,23.60
2010,08,21,15,35,23.60
2010,08,21,15,36,23.60
2010,08,21,15,37,23.50
2010,08,21,15,38,23.40
2010,08,21,15,39,23.60
2010,08,21,15,40,23.60
2010,08,21,15,41,23.60
2010,08,21,15,42,23.60
2010,08,21,15,43,23.60
2010,08,21,15,44,23.60
2010,08,21,15,45,23.60
2010,08,21,15,46,23.50
2010,08,21,15,47,23.40
2010,08,21,15,48,23.40
2010,08,21,15,49,23.40
2010,08,21,15,50,23.40
2010,08,21,15,51,23.30
2010,08,21,15,52,23.40
2010,08,21,15,53,23.40
2010,08,21,15,54,23.40
2010,08,21,15,55,23.40
2010,08,21,15,56,23.40
2010,08,21,15,57,23.40
2010,08,21,15,58,23.40
2010,08,21,15,59,23.30
2010,08,21,16,00,23.30
2010,08,21,16,01,23.30
2010,08,21,16,02,23.30
2010,08,21,16,03,23.40
2010,08,21,16,04,23.50
2010,08,21,16,05,23.60
2010,08,21,16,06,23.70
2010,08,21,16,07,23.70
2010,08,21,16,08,23.70
2010,08,21,16,09,23.70
2010,08,21,16,10,23.70
2010,08,21,16,11,23.70
2010,08,21,16,12,23.70
2010,08,21,16,13,23.70
2010,08,21,16,14,23.60
2010,08,21,16,15,23.60
2010,08,21,16,16,23.60
2010,08,21,16,17,23.50
2010,08,21,16,18,23.40
2010,08,21,16,19,23.30
2010,08,21,16,20,23.30
2010,08,21,16,21,23.40
2010,08,21,16,22,23.40
2010,08,21,16,23,23.40
2010,08,21,16,24,23.50
2010,08,21,16,25,23.60
2010,08,21,16,26,23.70
2010,08,21,16,27,23.70
2010,08,21,16,28,23.80
2010,08,21,16,29,23.90
2010,08,21,16,30,23.80
2010,08,21,16,31,23.80
2010,08,21,16,32,23.80
2010,08,21,16,33,23.80
2010,08,21,16,34,23.70
2010,08,21,16,35,23.70
2010,08,21,16,36,23.70
2010,08,21,16,37,23.70
2010,08,21,16,38,23.70
2010,08,21,16,39,23.70
2010,08,21,16,40,23.70
2010,08,21,16,41,23.70
2010,08,21,16,42,23.70
2010,08,21,16,43,23.70
2010,08,21,16,44,23.80
2010,08,21,16,45,23.80
2010,08,21,16,46,23.70
2010,08,21,16,47,23.70
2010,08,21,16,48,23.70
2010,08,21,16,49,23.70
2010,08,21,16,50,23.70
2010,08,21,16,51,23.60
2010,08,21,16,52,23.60
2010,08,21,16,53,23.60
2010,08,21,16,54,23.50
2010,08,21,16,55,23.40
2010,08,21,16,56,23.40
2010,08,21,16,57,23.40
2010,08,21,16,58,23.40
2010,08,21,16,59,23.40
2010,08,21,17,00,23.40
2010,08,21,17,01,23.40
2010,08,21,17,02,23.50
2010,08,21,17,03,23.60
2010,08,21,17,04,23.50
2010,08,21,17,05,23.40
2010,08,21,17,06,23.40
2010,08,21,17,07,23.40
2010,08,21,17,08,23.40
2010,08,21,17,09,23.30
2010,08,21,17,10,23.30
2010,08,21,17,11,23.30
2010,08,21,17,12,23.30
2010,08,21,17,13,23.30
2010,08,21,17,14,23.30
2010,08,21,17,15,23.30
2010,08,21,17,16,23.30
2010,08,21,17,17,23.30
2010,08,21,17,18,23.20
2010,08,21,17,19,23.20
2010,08,21,17,20,23.10
2010,08,21,17,21,23.20
2010,08,21,17,22,23.10
2010,08,21,17,23,23.10
2010,08,21,17,24,23.00
2010,08,21,17,25,22.90
2010,08,21,17,26,22.90
2010,08,21,17,27,22.90
2010,08,21,17,28,23.00
2010,08,21,17,29,23.10
2010,08,21,17,30,23.10
2010,08,21,17,31,23.10
2010,08,21,17,32,23.10
2010,08,21,17,33,23.10